GSAT0218 (GALILEO 22)

Last updated on Sat Apr 13 2024 01:02:27 GMT+0100 (British Summer Time)

1 43058U 17079D 24103.16869663 -.00000006 00000+0 00000+0 0 9994 2 43058 55.3738 243.4106 0002305 281.5785 78.3466 1.70474608 39440
UTC large
Height (km)
Speed (km/s)
/
Latitude / Longitude
Inclination (degrees)
Orbital Period (minutes)
Azimuth
Elevation
Range (km)
Doppler Factor

Next 0 passes for location: London (51.5072 / 0.1276)

Sorry there are no passes over London.